Weather History for KAST - April, 2013

Change the Weather History Date:

Thursday, April 4, 2013

  Actual Average Record
Temperature  
Mean Temperature 54 °F 48 °F  
Max Temperature 56 °F 55 °F 78 °F (1966)
Min Temperature 51 °F 40 °F 30 °F (1955)
Degree Days  
Heating Degree Days 11 17  
Month to date heating degree days 51 69  
Since 1 July heating degree days 4004 3989  
Cooling Degree Days 0 0  
Month to date cooling degree days 0 0  
Year to date cooling degree days 0 0  
Growing Degree Days 3 (Base 50)    
Moisture  
Dew Point 51 °F    
Average Humidity 92    
Maximum Humidity 100    
Minimum Humidity 83    
Precipitation  
Precipitation 0.25 in 0.20 in 2.73 in (1991)
Month to date precipitation 0.38 0.83  
Year to date precipitation 19.65 25.67  
Snow  
Snow 0.00 in - - ()
Month to date snowfall 0.0  
Snow Depth 0.00 in    
Sea Level Pressure  
Sea Level Pressure 29.72 in    
Wind  
Wind Speed 6 mph (South)    
Max Wind Speed 26 mph    
Max Gust Speed 41 mph    
Visibility 6 miles    
Events Rain    
T = Trace of Precipitation, MM = Missing Value Source: NWS Daily Summary

Daily Weather History Graph

Daily Weather History Graph

Search for Another Location

Airport or City:

Trip Planner

Search our weather history database for the weather conditions in past years. The results will help you decide how hot, cold, wet, or windy it might be!

Date:

Astronomy

Apr. 04, 2013 Rise Set
Actual Time 6:48 AM PDT 7:48 PM PDT
Civil Twilight 6:18 AM PDT 8:19 PM PDT
Nautical Twilight 5:41 AM PDT 8:55 PM PDT
Astronomical Twilight 5:03 AM PDT 9:34 PM PDT
Moon 3:38 AM PDT (4/4) 1:55 PM PDT (4/4)
Length of Visible Light 14h 00m
Length of Day
12h 59m
Waning Crescent, 32% of the Moon is Illuminated
Apr 4
Waning Crescent
Apr 10
New
Apr 18
First Quarter
Apr 25
Full
May 2
Last Quarter

Hourly Weather History & Observations

Time (PDT) Temp. Dew Point Humidity Pressure Visibility Wind Dir Wind Speed Gust Speed Precip Events Conditions
12:55 AM 53.1 °F 50.0 °F 89% 29.88 in 10.0 mi NW 3.5 mph - N/A   Clear
1:55 AM 53.1 °F 48.9 °F 86% 29.89 in 10.0 mi Calm Calm - N/A   Overcast
2:55 AM 53.1 °F 51.1 °F 93% 29.86 in 10.0 mi ESE 3.5 mph - 0.01 in Rain Light Rain
3:55 AM 53.1 °F 51.1 °F 93% 29.82 in 8.0 mi Calm Calm - 0.01 in Rain Light Rain
4:55 AM 52.0 °F 51.1 °F 97% 29.80 in 7.0 mi Calm Calm - 0.01 in Rain Light Rain
5:55 AM 53.1 °F 51.1 °F 93% 29.77 in 10.0 mi Calm Calm - 0.02 in Rain Light Rain
6:55 AM 52.0 °F 51.1 °F 97% 29.74 in 9.0 mi Calm Calm - 0.00 in Rain Light Rain
7:21 AM 51.8 °F 50.0 °F 94% 29.73 in 10.0 mi WSW 6.9 mph - 0.00 in   Overcast
7:55 AM 51.1 °F 50.0 °F 96% 29.73 in 10.0 mi WSW 6.9 mph - 0.00 in   Overcast
8:24 AM 51.8 °F 50.0 °F 94% 29.73 in 10.0 mi WSW 3.5 mph - N/A   Overcast
8:55 AM 51.1 °F 50.0 °F 96% 29.73 in 9.0 mi WSW 3.5 mph - N/A   Overcast
9:55 AM 52.0 °F 50.0 °F 93% 29.72 in 8.0 mi Calm Calm - 0.01 in Rain Light Rain
10:55 AM 52.0 °F 51.1 °F 97% 29.71 in 5.0 mi East 3.5 mph - 0.03 in Rain Light Rain
11:07 AM 51.8 °F 51.8 °F 100% 29.70 in 5.0 mi East 4.6 mph - 0.01 in Rain Light Rain
11:55 AM 54.0 °F 52.0 °F 93% 29.68 in 7.0 mi East 10.4 mph - 0.03 in Rain Light Rain
12:04 PM 53.6 °F 51.8 °F 94% 29.68 in 7.0 mi East 6.9 mph - 0.00 in Rain Light Rain
12:50 PM 53.6 °F 51.8 °F 94% 29.66 in 6.0 mi East 9.2 mph - 0.02 in Rain Light Rain
12:55 PM 54.0 °F 52.0 °F 93% 29.66 in 6.0 mi East 8.1 mph - 0.02 in Rain Light Rain
1:07 PM 53.6 °F 51.8 °F 94% 29.65 in 6.0 mi East 5.8 mph - 0.01 in Rain Light Rain
1:52 PM 55.4 °F 53.6 °F 94% 29.64 in 3.0 mi East 4.6 mph - 0.04 in Rain Light Rain
1:55 PM 55.0 °F 53.1 °F 93% 29.64 in 3.0 mi ESE 4.6 mph - 0.04 in Rain Light Rain
2:01 PM 55.4 °F 53.6 °F 94% 29.64 in 2.0 mi ESE 4.6 mph - 0.00 in Rain Light Rain
2:08 PM 55.4 °F 53.6 °F 94% 29.65 in 1.2 mi South 5.8 mph - 0.02 in Rain Rain
2:15 PM 55.4 °F 51.8 °F 88% 29.65 in 2.0 mi South 19.6 mph 27.6 mph 0.03 in Rain Light Rain
2:18 PM 55.4 °F 51.8 °F 88% 29.65 in 3.0 mi SSW 20.7 mph 27.6 mph 0.04 in Rain Light Rain
2:35 PM 55.4 °F 51.8 °F 88% 29.65 in 2.5 mi South 18.4 mph 34.5 mph 0.04 in Rain Light Rain
2:55 PM 54.0 °F 52.0 °F 93% 29.66 in 1.5 mi South 17.3 mph 29.9 mph 0.05 in Rain Light Rain
3:04 PM 53.6 °F 51.8 °F 94% 29.67 in 2.0 mi South 24.2 mph 33.4 mph 0.01 in Rain Light Rain
3:08 PM 53.6 °F 51.8 °F 94% 29.67 in 3.0 mi South 19.6 mph 32.2 mph 0.01 in Rain Light Rain
3:55 PM 54.0 °F 51.1 °F 90% 29.68 in 4.0 mi South 21.9 mph 40.3 mph 0.02 in Rain Light Rain
4:39 PM 55.4 °F 51.8 °F 88% 29.68 in 10.0 mi SSW 20.7 mph 34.5 mph 0.00 in   Overcast
4:55 PM 55.9 °F 51.1 °F 84% 29.68 in 10.0 mi South 23.0 mph 40.3 mph 0.00 in   Overcast
5:06 PM 55.4 °F 51.8 °F 88% 29.69 in 10.0 mi South 23.0 mph 38.0 mph N/A   Overcast
5:40 PM 55.4 °F 50.0 °F 82% 29.70 in 10.0 mi SSW 21.9 mph 35.7 mph N/A   Overcast
5:55 PM 54.0 °F 50.0 °F 86% 29.70 in 8.0 mi South 20.7 mph 33.4 mph 0.00 in Rain Light Rain
6:10 PM 53.6 °F 50.0 °F 88% 29.70 in 10.0 mi South 17.3 mph 35.7 mph 0.00 in   Overcast
6:55 PM 53.1 °F 50.0 °F 89% 29.72 in 10.0 mi South 17.3 mph 32.2 mph 0.00 in   Overcast
7:55 PM 53.1 °F 50.0 °F 89% 29.73 in 10.0 mi SSW 18.4 mph 26.5 mph 0.01 in Rain Light Rain
8:55 PM 52.0 °F 50.0 °F 93% 29.75 in 2.0 mi SSW 13.8 mph 25.3 mph 0.00 in Rain Light Rain
9:14 PM 51.8 °F 48.2 °F 88% 29.75 in 5.0 mi South 21.9 mph 35.7 mph 0.04 in Rain Light Rain
9:55 PM 52.0 °F 48.9 °F 89% 29.76 in 5.0 mi South 17.3 mph 29.9 mph 0.07 in Rain Light Rain
10:47 PM 51.8 °F 48.2 °F 88% 29.76 in 2.5 mi South 20.7 mph 29.9 mph 0.07 in Rain Light Rain
10:55 PM 52.0 °F 48.9 °F 89% 29.76 in 3.0 mi South 25.3 mph 32.2 mph 0.09 in Rain Rain
11:14 PM 51.8 °F 48.2 °F 88% 29.76 in 3.0 mi SSW 21.9 mph 35.7 mph 0.05 in Rain Rain
11:24 PM 51.8 °F 48.2 °F 88% 29.77 in 5.0 mi SSW 15.0 mph 36.8 mph 0.07 in Rain Light Rain
11:43 PM 51.8 °F 48.2 °F 88% 29.77 in 5.0 mi SSW 19.6 mph 28.8 mph 0.11 in Rain Rain
11:52 PM 51.8 °F 48.2 °F 88% 29.77 in 5.0 mi SSW 19.6 mph 28.8 mph 0.12 in Rain Light Rain
11:55 PM 52.0 °F 48.9 °F 89% 29.77 in 4.0 mi South 18.4 mph 31.1 mph 0.13 in Rain Light Rain